CW8719 Villalvernia IT current weather conditions

sailwx.info

Wind from 041 at 1 knots gusting 5

Air temperature 28.3° C
Dewpoint 10.5° C

Last reported at 2020-Aug-05 18:04 UTC.
Time now 2020-Aug-05 18:47 UTC

Location: N 44°49' E 008°51'.
View on Google Maps.

See reports from other nearby stations

  
Tides and Currents Weather Stations Pressure Air Temp Water Temp Dewpoint Dewpoint Depression Visibility Wind Speed Wind Dir Waves Ship Positions
date/time (UTC)wind fromknots sea level pressurealtimeterstation pressurevisibilityair tempwater tempwave heightnotes
2020-Aug-05 18:04 041 1 gusting 5 28.3
2020-Aug-05 17:49 28.9
2020-Aug-05 17:44 339 2 gusting 5 28.9
2020-Aug-05 17:39 316 1 gusting 5 28.9
2020-Aug-05 17:34 002 2 gusting 5 29.4
2020-Aug-05 17:19 318 1 gusting 6 29.4
2020-Aug-05 17:14 318 1 gusting 6 29.4
2020-Aug-05 17:09 30.0
2020-Aug-05 17:04 320 1 gusting 6 30.0
2020-Aug-05 16:49 29.4
2020-Aug-05 16:44 29.4
2020-Aug-05 16:39 323 3 gusting 7 29.4
2020-Aug-05 16:34 041 3 gusting 8 29.4
2020-Aug-05 16:19 337 6 gusting 11 28.9
2020-Aug-05 16:14 29.4
2020-Aug-05 16:09 349 5 gusting 8 29.4
2020-Aug-05 16:04 358 4 gusting 7 30.0
2020-Aug-05 15:49 29.4
2020-Aug-05 15:44 041 2 gusting 13 29.4
2020-Aug-05 15:39 29.4
2020-Aug-05 15:34 340 4 gusting 12 29.4
2020-Aug-05 15:19 315 1 gusting 10 29.4
2020-Aug-05 15:14 315 4 gusting 10 29.4
2020-Aug-05 15:09 357 4 gusting 11 29.4
2020-Aug-05 15:04 090 3 gusting 11 29.4
2020-Aug-05 14:49 29.4
2020-Aug-05 14:44 29.4
2020-Aug-05 14:39 322 1 gusting 8 29.4
2020-Aug-05 14:34 004 4 gusting 8 29.4
2020-Aug-05 14:19 042 4 gusting 10 28.9
2020-Aug-05 14:14 318 4 gusting 13 28.3
2020-Aug-05 14:09 28.3
2020-Aug-05 14:04 28.9
2020-Aug-05 13:49 318 4 gusting 10 29.4
2020-Aug-05 13:44 29.4
2020-Aug-05 13:39 358 4 gusting 6 29.4
2020-Aug-05 13:34 005 1 gusting 5 29.4
2020-Aug-05 13:19 135 0 gusting 11 28.3
2020-Aug-05 13:14 27.8
2020-Aug-05 13:09 358 8 gusting 11 28.3
2020-Aug-05 13:04 358 6 gusting 8 28.9
2020-Aug-05 12:49 317 5 gusting 10 27.8
2020-Aug-05 12:44 358 6 gusting 10 27.8
2020-Aug-05 12:39 336 5 gusting 8 27.8
2020-Aug-05 12:34 340 6 gusting 8 27.8
2020-Aug-05 12:19 004 2 gusting 8 27.8
2020-Aug-05 12:14 319 6 gusting 8 27.8
2020-Aug-05 12:09 27.8
2020-Aug-05 12:04 27.8
2020-Aug-05 11:49 26.7
2020-Aug-05 11:44 357 4 gusting 7 26.7
2020-Aug-05 11:39 317 4 gusting 6 26.7
2020-Aug-05 11:34 315 1 gusting 6 26.7
2020-Aug-05 11:19 357 0 gusting 11 26.7
2020-Aug-05 11:14 26.1
2020-Aug-05 11:09 26.1
2020-Aug-05 11:04 26.1
2020-Aug-05 10:49 357 5 gusting 6 25.6
2020-Aug-05 10:44 25.6
2020-Aug-05 10:39 039 4 gusting 8 25.0
2020-Aug-05 10:34 25.0
2020-Aug-05 10:19 358 5 gusting 6 25.0
2020-Aug-05 10:14 315 2 gusting 6 25.0
2020-Aug-05 10:09 358 1 gusting 6 24.4
2020-Aug-05 10:04 336 4 gusting 6 24.4
2020-Aug-05 09:49 318 1 gusting 6 23.9
2020-Aug-05 09:44 23.9
2020-Aug-05 09:39 23.9
2020-Aug-05 09:34 315 1 gusting 5 23.3
2020-Aug-05 09:19 225 1 gusting 5 22.8
2020-Aug-05 09:14 358 2 gusting 5 22.8
2020-Aug-05 09:09 22.8
2020-Aug-05 09:04 315 1 gusting 5 22.2
2020-Aug-05 08:49 228 1 gusting 5 21.7
2020-Aug-05 08:44 315 1 gusting 5 21.7
2020-Aug-05 08:39 358 1 gusting 2 21.7
2020-Aug-05 08:34 353 0 gusting 2 21.7
2020-Aug-05 08:19 225 2 gusting 4 20.6
2020-Aug-05 08:14 21.1
2020-Aug-05 08:09 358 0 gusting 4 20.6
2020-Aug-05 08:04 226 1 gusting 4 20.6
2020-Aug-05 07:49 315 20.6
2020-Aug-05 07:44 315 2 gusting 4 20.6
2020-Aug-05 07:39 230 2 gusting 4 20.6
2020-Aug-05 07:34 181 2 gusting 4 20.6
2020-Aug-05 07:19 153 20.0
2020-Aug-05 07:14 357 20.0
2020-Aug-05 07:09 180 1 gusting 2 19.4
2020-Aug-05 07:04 205 2 gusting 2 18.9
2020-Aug-05 06:49 225 1 gusting 4 18.3
2020-Aug-05 06:44 222 2 gusting 4 18.3
2020-Aug-05 06:39 180 1 gusting 4 18.3
2020-Aug-05 06:34 310 18.3
2020-Aug-05 06:19 135 16.7
2020-Aug-05 06:14 225 16.1
2020-Aug-05 06:09 180 15.6
2020-Aug-05 06:04 225 15.6
2020-Aug-05 05:49 230 14.4
2020-Aug-05 05:44 225 14.4
2020-Aug-05 05:39 225 13.9
2020-Aug-05 05:34 135 13.9
2020-Aug-05 05:19 230 13.3
2020-Aug-05 05:14 158 13.3
2020-Aug-05 05:09 220 13.3
2020-Aug-05 05:04 220 13.3
2020-Aug-05 04:49 222 13.3
2020-Aug-05 04:44 140 13.3
2020-Aug-05 04:39 135 13.3
2020-Aug-05 04:34 222 13.3
2020-Aug-05 04:19 160 0 gusting 2 13.3
2020-Aug-05 04:14 180 0 gusting 2 13.3
2020-Aug-05 04:09 093 0 gusting 2 13.3
2020-Aug-05 04:04 159 0 gusting 1 13.3
2020-Aug-05 03:49 094 13.3
2020-Aug-05 03:44 163 13.3
2020-Aug-05 03:39 230 13.3
2020-Aug-05 03:34 180 0 gusting 2 13.3
2020-Aug-05 03:19 225 13.3
2020-Aug-05 03:14 135 0 gusting 2 13.3
2020-Aug-05 03:09 135 13.3
2020-Aug-05 03:04 175 1 gusting 2 13.3
2020-Aug-05 02:49 158 13.9
2020-Aug-05 02:44 135 0 gusting 1 13.9
2020-Aug-05 02:39 222 13.9
2020-Aug-05 02:34 137 0 gusting 2 13.9
2020-Aug-05 02:19 183 13.9
2020-Aug-05 02:14 177 0 gusting 2 13.9
2020-Aug-05 02:09 180 0 gusting 2 13.9
2020-Aug-05 02:04 180 13.9
2020-Aug-05 01:49 135 0 gusting 2 13.9
2020-Aug-05 01:44 135 0 gusting 1 14.4
2020-Aug-05 01:39 225 13.9
2020-Aug-05 01:34 045 13.9
2020-Aug-05 01:19 315 14.4
2020-Aug-05 01:14 315 14.4
2020-Aug-05 01:09 184 14.4
2020-Aug-05 01:04 178 0 gusting 1 14.4
2020-Aug-05 00:49 175 14.4
2020-Aug-05 00:44 138 0 gusting 2 14.4
2020-Aug-05 00:39 135 0 gusting 2 14.4
2020-Aug-05 00:34 183 14.4
2020-Aug-05 00:19 220 15.0
2020-Aug-05 00:14 225 15.0
2020-Aug-05 00:09 180 15.0
2020-Aug-05 00:04 315 15.0
2020-Aug-04 23:49 225 15.0
2020-Aug-04 23:44 135 15.0
2020-Aug-04 23:39 139 0 gusting 2 15.0
2020-Aug-04 23:34 180 0 gusting 2 15.0
2020-Aug-04 23:19 225 0 gusting 1 15.6
2020-Aug-04 23:14 002 15.6
2020-Aug-04 23:09 138 0 gusting 1 15.6
2020-Aug-04 23:04 315 15.6
2020-Aug-04 22:49 315 16.1
2020-Aug-04 22:44 045 16.1
2020-Aug-04 22:39 315 16.1
2020-Aug-04 22:34 135 16.1
2020-Aug-04 22:19 234 0 gusting 0 16.7
2020-Aug-04 22:14 093 16.7
2020-Aug-04 22:09 315 16.7
2020-Aug-04 22:04 180 16.7
2020-Aug-04 21:49 140 0 gusting 2 16.7
2020-Aug-04 21:44 225 0 gusting 1 16.7
2020-Aug-04 21:39 315 16.7
2020-Aug-04 21:34 178 0 gusting 1 16.7
2020-Aug-04 21:19 135 0 gusting 1 16.7
2020-Aug-04 21:14 141 0 gusting 0 17.2
2020-Aug-04 21:09 222 17.2
2020-Aug-04 21:04 177 0 gusting 0 17.2
2020-Aug-04 20:49 180 17.8
2020-Aug-04 20:44 002 0 gusting 1 17.8
2020-Aug-04 20:39 184 0 gusting 2 18.3
2020-Aug-04 20:34 160 0 gusting 2 18.3
2020-Aug-04 20:19 200 0 gusting 1 18.9
2020-Aug-04 20:14 178 0 gusting 0 18.9
2020-Aug-04 20:09 315 19.4
2020-Aug-04 20:04 315 19.4
2020-Aug-04 19:49 315 0 gusting 1 20.0
2020-Aug-04 19:44 315 20.0
2020-Aug-04 19:39 315 20.6
2020-Aug-04 19:34 315 20.6
2020-Aug-04 19:19 135 21.7
2020-Aug-04 19:14 315 22.2
2020-Aug-04 19:09 315 22.8
2020-Aug-04 19:04 315 22.8
2020-Aug-04 18:49 315 24.4
2020-Aug-04 18:44 315 25.0
2020-Aug-04 18:39 315 25.6
2020-Aug-04 18:34 315 25.6
2020-Aug-04 18:19 315 26.7
2020-Aug-04 18:14 355 0 gusting 1 26.7
2020-Aug-04 18:09 180 0 gusting 1 26.7
2020-Aug-04 18:04 007 0 gusting 4 27.2
2020-Aug-04 17:49 004 0 gusting 4 27.8
2020-Aug-04 17:44 230 0 gusting 2 27.8
2020-Aug-04 17:39 354 0 gusting 4 27.8
2020-Aug-04 17:34 318 0 gusting 5 27.8
2020-Aug-04 17:19 325 2 gusting 5 28.9
2020-Aug-04 17:14 180 1 gusting 2 28.9
2020-Aug-04 17:09 230 0 gusting 5 28.9
2020-Aug-04 17:04 358 0 gusting 5 28.9
2020-Aug-04 16:49 308 1 gusting 4 28.9
2020-Aug-04 16:44 317 1 gusting 4 29.4
2020-Aug-04 16:39 355 1 gusting 5 29.4
2020-Aug-04 16:34 315 1 gusting 5 29.4
2020-Aug-04 16:19 352 2 gusting 6 29.4
2020-Aug-04 16:14 225 1 gusting 8 29.4
2020-Aug-04 16:09 315 1 gusting 8 28.9
2020-Aug-04 16:04 29.4
2020-Aug-04 15:49 045 2 gusting 11 27.8
2020-Aug-04 15:44 27.8
2020-Aug-04 15:39 28.3
2020-Aug-04 15:34 358 3 gusting 8 28.3
2020-Aug-04 15:19 318 1 gusting 5 28.9
2020-Aug-04 15:14 29.4
2020-Aug-04 15:09 041 1 gusting 5 29.4
2020-Aug-04 15:04 140 2 gusting 5 29.4
2020-Aug-04 14:49 041 0 gusting 8 28.3
2020-Aug-04 14:44 28.3
2020-Aug-04 14:39 312 4 gusting 8 28.3
2020-Aug-04 14:34 321 3 gusting 6 28.3
2020-Aug-04 14:19 28.9
2020-Aug-04 14:14 045 2 gusting 6 29.4
2020-Aug-04 14:09 047 0 gusting 5 28.9
2020-Aug-04 14:04 135 2 gusting 5 28.9
2020-Aug-04 13:49 315 1 gusting 6 29.4
2020-Aug-04 13:44 315 3 gusting 6 28.9
2020-Aug-04 13:39 043 0 gusting 5 28.9
2020-Aug-04 13:34 001 1 gusting 5 28.9
2020-Aug-04 13:19 341 0 gusting 4 28.3
2020-Aug-04 13:14 315 1 gusting 6 27.8
2020-Aug-04 13:09 185 2 gusting 6 27.8
2020-Aug-04 13:04 315 1 gusting 6 27.2
2020-Aug-04 12:49 021 2 gusting 5 27.2
2020-Aug-04 12:44 338 0 gusting 2 26.1
2020-Aug-04 12:39 337 0 gusting 2 25.6
2020-Aug-04 12:34 358 1 gusting 4 25.0
2020-Aug-04 12:19 315 2 gusting 2 25.6
2020-Aug-04 12:14 315 0 gusting 5 25.0
2020-Aug-04 12:09 315 0 gusting 5 25.0
2020-Aug-04 12:04 045 1 gusting 6 25.0
2020-Aug-04 11:49 24.4
2020-Aug-04 11:44 24.4
2020-Aug-04 11:39 358 0 gusting 2 24.4
2020-Aug-04 11:34 24.4
2020-Aug-04 11:19 315 0 gusting 4 23.9
2020-Aug-04 11:14 315 2 gusting 4 23.3
2020-Aug-04 11:09 336 1 gusting 4 23.9
2020-Aug-04 11:04 315 1 gusting 4 23.3
2020-Aug-04 10:49 354 2 gusting 6 22.8
2020-Aug-04 10:44 316 2 gusting 6 22.8
2020-Aug-04 10:39 358 3 gusting 5 22.8
2020-Aug-04 10:34 318 2 gusting 5 22.2
2020-Aug-04 10:19 339 2 gusting 4 22.2
2020-Aug-04 10:14 318 2 gusting 5 22.2
2020-Aug-04 10:09 315 1 gusting 5 21.7
2020-Aug-04 10:04 321 2 gusting 5 21.7
2020-Aug-04 09:49 313 1 gusting 5 21.7
2020-Aug-04 09:44 225 0 gusting 5 21.7
2020-Aug-04 09:39 315 2 gusting 5 21.7
2020-Aug-04 09:34 315 2 gusting 4 21.7
2020-Aug-04 09:19 315 0 gusting 5 21.7
2020-Aug-04 09:14 229 0 gusting 4 21.7
2020-Aug-04 09:09 314 1 gusting 4 21.1
2020-Aug-04 09:04 234 2 gusting 4 21.1
2020-Aug-04 08:49 315 1 gusting 5 21.1
2020-Aug-04 08:44 180 1 gusting 4 20.6
2020-Aug-04 08:39 186 2 gusting 4 20.6
2020-Aug-04 08:34 181 1 gusting 5 20.0
2020-Aug-04 08:19 010 0 gusting 6 19.4
2020-Aug-04 08:14 180 5 gusting 6 19.4
2020-Aug-04 08:09 220 0 gusting 7 19.4
2020-Aug-04 08:04 180 4 gusting 7 18.9
2020-Aug-04 07:49 183 2 gusting 7 18.3
2020-Aug-04 07:44 225 5 gusting 7 18.3
2020-Aug-04 07:39 202 5 gusting 6 18.3
2020-Aug-04 07:34 221 6 gusting 6 18.3
2020-Aug-04 07:19 045 0 gusting 5 18.3
2020-Aug-04 07:14 222 4 gusting 6 18.3
2020-Aug-04 07:09 052 2 gusting 6 18.3
2020-Aug-04 07:04 225 2 gusting 4 18.3
2020-Aug-04 06:49 357 18.3
2020-Aug-04 06:44 159 1 gusting 2 18.3
2020-Aug-04 06:39 225 0 gusting 2 17.8
2020-Aug-04 06:34 315 17.8
2020-Aug-04 06:19 354 0 gusting 2 17.8
2020-Aug-04 06:14 357 1 gusting 2 17.8
2020-Aug-04 06:09 321 0 gusting 1 17.8
2020-Aug-04 06:04 357 17.2
2020-Aug-04 05:49 135 0 gusting 2 17.2
2020-Aug-04 05:44 310 17.2
2020-Aug-04 05:39 184 0 gusting 2 17.2
2020-Aug-04 05:34 095 1 gusting 2 17.2
2020-Aug-04 05:19 173 0 gusting 2 16.7
2020-Aug-04 05:14 220 17.2
2020-Aug-04 05:09 240 1 gusting 2 16.7
2020-Aug-04 05:04 102 0 gusting 2 17.2
2020-Aug-04 04:49 315 0 gusting 4 17.2
2020-Aug-04 04:44 179 0 gusting 1 17.2
2020-Aug-04 04:39 135 0 gusting 1 17.2
2020-Aug-04 04:34 160 17.2
2020-Aug-04 04:19 225 2 gusting 2 17.2
2020-Aug-04 04:14 225 0 gusting 2 17.2
2020-Aug-04 04:09 183 0 gusting 2 17.2
2020-Aug-04 04:04 179 0 gusting 2 17.2
2020-Aug-04 03:49 180 0 gusting 2 17.2
2020-Aug-04 03:44 180 17.2
2020-Aug-04 03:39 315 17.2
2020-Aug-04 03:34 183 17.2
2020-Aug-04 03:19 225 16.7
2020-Aug-04 03:14 135 16.7
2020-Aug-04 03:09 230 16.7
2020-Aug-04 03:04 230 16.7
2020-Aug-04 02:49 315 17.2
2020-Aug-04 02:44 17.2
2020-Aug-04 02:39 315 17.2
2020-Aug-04 02:34 225 0 gusting 1 17.2
2020-Aug-04 02:19 318 0 gusting 2 17.2
2020-Aug-04 02:14 315 0 gusting 2 17.2
2020-Aug-04 02:09 139 1 gusting 2 17.2
2020-Aug-04 02:04 313 17.2
2020-Aug-04 01:49 180 0 gusting 2 17.2
2020-Aug-04 01:44 138 0 gusting 1 17.2
2020-Aug-04 01:39 180 0 gusting 2 17.8
2020-Aug-04 01:34 178 0 gusting 4 17.8
2020-Aug-04 01:19 222 0 gusting 2 17.8
2020-Aug-04 01:14 135 17.8
2020-Aug-04 01:09 203 1 gusting 2 17.8
2020-Aug-04 01:04 221 1 gusting 4 17.8
2020-Aug-04 00:49 178 2 gusting 4 17.8
2020-Aug-04 00:44 226 1 gusting 2 17.8
2020-Aug-04 00:39 093 0 gusting 2 17.8
2020-Aug-04 00:34 137 1 gusting 2 17.8
2020-Aug-04 00:19 180 1 gusting 4 17.8
2020-Aug-04 00:14 138 2 gusting 4 17.8
2020-Aug-04 00:09 135 17.8
2020-Aug-04 00:04 158 0 gusting 2 17.8
2020-Aug-03 23:49 138 0 gusting 0 17.8
2020-Aug-03 23:44 311 17.8
2020-Aug-03 23:39 315 17.8
2020-Aug-03 23:34 140 17.8
2020-Aug-03 23:19 225 17.8
2020-Aug-03 23:14 230 17.8
2020-Aug-03 23:09 315 17.8
2020-Aug-03 23:04 315 17.8
2020-Aug-03 22:49 180 17.8
2020-Aug-03 22:44 184 0 gusting 2 17.8
2020-Aug-03 22:39 132 0 gusting 2 17.8
2020-Aug-03 22:34 317 0 gusting 2 17.8
2020-Aug-03 22:19 130 0 gusting 2 17.8
2020-Aug-03 22:14 220 17.8
2020-Aug-03 22:09 180 1 gusting 4 17.8
2020-Aug-03 22:04 180 1 gusting 4 17.8
2020-Aug-03 21:49 135 0 gusting 2 17.8
2020-Aug-03 21:44 178 0 gusting 1 17.8
2020-Aug-03 21:39 010 0 gusting 1 17.8
2020-Aug-03 21:34 315 18.3
2020-Aug-03 21:19 18.3
2020-Aug-03 21:14 318 18.3
2020-Aug-03 21:09 318 17.8
2020-Aug-03 21:04 315 17.8
2020-Aug-03 20:49 315 17.8
2020-Aug-03 20:44 315 17.8
2020-Aug-03 20:39 225 17.8
2020-Aug-03 20:34 315 17.8
2020-Aug-03 20:19 357 0 gusting 2 17.8
2020-Aug-03 20:14 358 17.8
2020-Aug-03 20:09 17.8
2020-Aug-03 20:04 18.3
2020-Aug-03 19:49 317 17.8
2020-Aug-03 19:44 315 17.8
2020-Aug-03 19:39 315 17.8
2020-Aug-03 19:34 225 17.8
2020-Aug-03 19:19 174 0 gusting 0 17.8
2020-Aug-03 19:14 180 0 gusting 1 18.3
2020-Aug-03 19:09 180 0 gusting 1 18.3
2020-Aug-03 19:04 225 18.3
2020-Aug-03 18:49 092 0 gusting 1 18.3
2020-Aug-03 18:44 140 18.3
2020-Aug-03 18:39 147 0 gusting 1 18.3
2020-Aug-03 18:34 230 18.3
2020-Aug-03 18:19 183 18.3
2020-Aug-03 18:14 187 0 gusting 1 18.3
2020-Aug-03 18:09 178 18.3
2020-Aug-03 18:04 040 18.3